Torna al catalogo

NOAA 16 DEB

AttivoSSO
NORAD 42417·DEBRIS·🇺🇸 United States

Lanciato Sep 21, 2000 da Vandenberg Space Force Base

Loading…

Prossimi Passaggi (prossime 24 ore)

TLE

AggiornatoSource: Space-Track

Epoca: Sep 14, 2026, 10:33 UTC

1 42417U 00055TM  26257.44010375  .00003449  00000-0  12675-2 0  9997
2 42417  98.7371 336.7018 0027240 157.0484 203.1923 14.33140864543317

Traccia NOAA 16 DEB in tempo reale con AllMySat

Download on the App Store